Location: Kings Park
(40.8862°N, 73.2573°W)
Time: 05:24:04
(UTC+00:00)

YAOGAN 1 - Pass Details

Date: 29 October 2020
Orbit: 618 x 620 km, 97.9° (Epoch: 27 November)

Event Time Altitude Azimuth Distance (km) Brightness Sun altitude
Rises 23:40:52 0° 170° (S) 2,882 5.9 -21.1°
Reaches altitude 10° 23:43:02 10° 172° (S) 1,981 5.1 -21.5°
Maximum altitude 23:47:21 75° 258° (WSW) 646 2.7 -22.3°
Drops below altitude 10° 23:51:41 10° 344° (NNW) 1,995 5.4 -23.1°
Sets 23:53:53 0° 346° (NNW) 2,906 6.2 -23.5°
